Latest Coastal Weather Observations for Cape Otway

IDT60701

Issued at 4:12 am EDT Wednesday 18 January 2017 (issued every 10 minutes, with the page automatically refreshed every 10 minutes)

About coastal observations | Map of coastal stations | Coastal observations for TAS | Marine services | Other Formats
Station Details ID: 090015 Name: CAPE OTWAY LIGHTHOUSE Lat: -38.86 Lon: 143.51 Height: 82.0 m
Data from the previous 72 hours. | See also: Recent months at Cape Otway
Date/Time
EDT
Temp
°C
Wind Pressure Rain since
9am
mm
Weather Cloud Vis
km
Sea
Height
m
Swell
Dir  Spd
kts
Gust
kts
hPa Trend Height
m
Period
s
Dir
18/04:00am 15.1 SW 15 22 1009.6 - 2.0 - - - - - - -
18/03:30am 14.8 SW 15 23 1009.9 - 2.0 - - - - - - -
18/03:00am 14.6 WSW 13 18 1010.0 - 2.0 Recent precip. - - - - - -
18/02:30am 14.7 WSW 16 23 1010.0 - 1.8 - - - - - - -
18/02:08am 14.1 SW 19 29 1010.8 - 1.8 - - - - - - -
18/02:00am 14.2 SW 22 29 1010.3 - 1.8 - - - - - - -
18/01:54am 14.7 WSW 18 27 1010.1 - 1.8 - - - - - - -
18/01:30am 15.6 W 16 20 1010.5 - 1.6 - - - - - - -
18/01:00am 15.4 W 14 20 1010.7 - 1.4 - - - - - - -
18/12:30am 15.2 W 14 18 1010.2 - 1.4 - - - - - - -
18/12:00am 15.8 W 14 19 1010.7 - 1.2 Recent precip. - - - - - -
 
Date/Time
EDT
Temp
°C
Wind Pressure Rain since
9am
mm
Weather Cloud Vis
km
Sea
Height
m
Swell
Dir  Spd
kts
Gust
kts
hPa Trend Height
m
Period
s
Dir
17/11:30pm 16.3 W 14 19 1010.5 - 1.2 - - - - - - -
17/11:00pm 17.0 W 16 22 1011.3 - 0.2 - - - - - - -
17/10:30pm 16.9 W 10 13 1009.8 - 0.0 - - - - - - -
17/10:00pm 16.9 W 10 13 1009.0 - 0.0 - - - - - - -
17/09:30pm 16.9 W 11 19 1008.8 - 0.0 - - - - - - -
17/09:27pm 17.0 WSW 12 19 1008.5 - 0.0 - - - - - - -
17/09:00pm 17.0 SW 19 25 1008.5 - 0.0 - - - - - - -
17/08:55pm 17.3 WSW 18 25 1008.7 - 0.0 - - - - - - -
17/08:30pm 17.7 W 10 14 1008.9 - 0.0 - - - - - - -
17/08:00pm 18.2 W 13 16 1009.1 - 0.0 - - - - - - -
17/07:30pm 18.8 W 12 17 1007.8 - 0.0 - - - - - - -
17/07:00pm 19.9 WNW 8 12 1006.7 - 0.0 - - - - - - -
17/06:30pm 20.2 WNW 9 12 1006.1 - 0.0 - - - - - - -
17/06:00pm 20.8 NW 7 10 1005.5 - 0.0 - - - - - - -
17/05:30pm 20.1 WNW 9 11 1006.1 - 0.0 - - - - - - -
17/05:00pm 20.6 WNW 8 12 1006.3 - 0.0 - - - - - - -
17/04:30pm 20.9 NW 8 11 1006.6 - 0.0 - - - - - - -
17/04:00pm 20.9 WNW 9 12 1007.1 - 0.0 - - - - - - -
17/03:30pm 21.1 WNW 10 14 1007.4 - 0.0 - - - - - - -
17/03:00pm 21.6 NW 9 15 1007.1 - 0.0 - - - - - - -
17/02:30pm 21.2 NW 9 14 1007.4 - 0.0 - - - - - - -
17/02:00pm 22.8 WNW 9 11 1007.2 - 0.0 - - - - - - -
17/01:30pm 24.9 WNW 8 12 1007.5 - 0.0 - - - - - - -
17/01:00pm 26.3 WNW 9 13 1007.3 - 0.0 - - - - - - -
17/12:30pm 26.3 NW 12 18 1007.6 - 0.0 - - - - - - -
17/12:00pm 26.4 NW 11 17 1007.5 - 0.0 - - - - - - -
17/11:30am 26.9 NW 10 15 1007.7 - 0.0 - - - - - - -
17/11:00am 26.3 NW 9 14 1008.1 - 0.0 - - - - - - -
17/10:30am 24.7 NW 6 9 1007.9 - 0.0 - - - - - - -
17/10:00am 24.4 NW 6 11 1008.2 - 0.0 - - - - - - -
17/09:30am 23.5 NNW 8 12 1007.7 - 0.0 - - - - - - -
17/09:00am 23.5 N 8 12 1007.4 - 0.0 - - - - - - -
17/08:30am 22.2 NW 4 6 1007.9 - 0.0 - - - - - - -
17/08:00am 21.3 NW 5 6 1007.8 - 0.0 - - - - - - -
17/07:30am 20.9 NNW 5 6 1008.0 - 0.0 - - - - - - -
17/07:00am 20.4 NNW 8 10 1007.7 - 0.0 - - - - - - -
17/06:30am 19.9 NNW 8 10 1007.8 - 0.0 - - - - - - -
17/06:00am 18.1 NW 7 8 1007.5 - 0.0 - - - - - - -
17/05:30am 18.3 NW 7 8 1007.6 - 0.0 - - - - - - -
17/05:00am 18.7 NW 8 9 1007.6 - 0.0 - - - - - - -
17/04:30am 18.6 NW 8 9 1007.4 - 0.0 - - - - - - -
17/04:00am 18.8 NW 8 9 1007.7 - 0.0 - - - - - - -
17/03:30am 18.8 NW 7 9 1007.9 - 0.0 - - - - - - -
17/03:00am 18.6 NW 8 9 1007.8 - 0.0 - - - - - - -
17/02:30am 18.9 NNW 9 10 1008.0 - 0.0 - - - - - - -
17/02:00am 19.2 NNW 9 10 1008.4 - 0.0 - - - - - - -
17/01:30am 18.9 NNW 9 10 1008.8 - 0.0 - - - - - - -
17/01:00am 19.6 NW 7 8 1009.0 - 0.0 - - - - - - -
17/12:30am 19.5 NW 5 6 1009.1 - 0.0 - - - - - - -
17/12:00am 19.1 N 6 7 1009.1 - 0.0 - - - - - - -
 
Date/Time
EDT
Temp
°C
Wind Pressure Rain since
9am
mm
Weather Cloud Vis
km
Sea
Height
m
Swell
Dir  Spd
kts
Gust
kts
hPa Trend Height
m
Period
s
Dir
16/11:30pm 19.3 NNW 7 8 1009.3 - 0.0 - - - - - - -
16/11:00pm 19.7 NNW 6 7 1010.0 - 0.0 - - - - - - -
16/10:30pm 20.5 NNW 7 8 1010.2 - 0.0 - - - - - - -
16/10:00pm 20.3 NW 6 7 1010.2 - 0.0 - - - - - - -
16/09:30pm 20.7 NW 6 6 1010.1 - 0.0 - - - - - - -
16/09:00pm 21.4 NW 6 7 1010.1 - 0.0 - - - - - - -
16/08:30pm 21.9 WNW 5 7 1009.9 - 0.0 - - - - - - -
16/08:00pm 25.0 WNW 5 7 1010.1 - 0.0 - - - - - - -
16/07:30pm 25.3 WNW 5 9 1010.1 - 0.0 - - - - - - -
16/07:00pm 25.7 NW 6 10 1010.1 - 0.0 - - - - - - -
16/06:30pm 22.3 ESE 4 5 1010.2 - 0.0 - - - - - - -
16/06:00pm 21.6 ESE 4 5 1010.5 - 0.0 - - - - - - -
16/05:30pm 21.7 E 5 7 1011.1 - 0.0 - - - - - - -
16/05:00pm 20.2 E 7 9 1011.4 - 0.0 - - - - - - -
16/04:30pm 20.8 E 7 9 1011.6 - 0.0 - - - - - - -
16/04:00pm 20.1 E 7 11 1011.8 - 0.0 - - - - - - -
16/03:30pm 20.0 E 7 12 1012.2 - 0.0 - - - - - - -
16/03:00pm 20.1 E 7 13 1012.6 - 0.0 - - - - - - -
16/02:30pm 19.8 E 9 13 1013.1 - 0.0 - - - - - - -
16/02:00pm 18.7 E 11 14 1013.4 - 0.0 - - - - - - -
16/01:30pm 18.3 ESE 11 14 1013.8 - 0.0 - - - - - - -
16/01:00pm 17.9 ESE 10 12 1014.3 - 0.0 - - - - - - -
16/12:30pm 17.8 ESE 7 9 1014.6 - 0.0 - - - - - - -
16/12:00pm 18.3 SE 6 8 1014.9 - 0.0 - - - - - - -
16/11:30am 18.0 SSE 5 7 1015.2 - 0.0 - - - - - - -
16/11:00am 17.8 SSE 6 8 1015.4 - 0.0 - - - - - - -
16/10:30am 17.6 S 5 7 1015.4 - 0.0 - - - - - - -
16/10:00am 17.1 SSW 4 6 1015.3 - 0.0 - - - - - - -
16/09:30am 15.9 SW 6 7 1015.6 - 0.0 - - - - - - -
16/09:00am 15.9 NNW 5 9 1015.7 - 0.0 - - - - - - -
16/08:30am 15.3 NNW 6 8 1016.1 - 0.0 - - - - - - -
16/08:00am 14.9 N 5 7 1016.1 - 0.0 - - - - - - -
16/07:30am 13.2 N 6 8 1015.5 - 0.0 - - - - - - -
16/07:00am 11.8 N 7 9 1015.5 - 0.0 - - - - - - -
16/06:30am 11.1 N 8 9 1015.6 - 0.0 - - - - - - -
16/06:00am 11.8 N 7 8 1015.3 - 0.0 - - - - - - -
16/05:30am 12.1 N 8 9 1015.2 - 0.0 - - - - - - -
16/05:00am 11.4 N 8 9 1015.2 - 0.0 - - - - - - -
16/04:30am 10.7 N 7 8 1015.2 - 0.0 - - - - - - -
16/04:00am 10.8 N 7 8 1015.1 - 0.0 - - - - - - -
16/03:30am 11.0 N 7 8 1015.1 - 0.0 - - - - - - -
16/03:00am 11.1 N 7 7 1015.2 - 0.0 - - - - - - -
16/02:30am 11.5 N 6 7 1015.5 - 0.0 - - - - - - -
16/02:00am 12.8 NW 4 5 1016.0 - 0.0 - - - - - - -
16/01:30am 13.1 N 6 8 1016.3 - 0.0 - - - - - - -
16/01:00am 14.5 WSW 6 8 1016.6 - 0.0 - - - - - - -
16/12:30am 14.8 WSW 7 10 1016.9 - 0.0 - - - - - - -
16/12:00am 14.9 WSW 6 10 1017.0 - 0.0 - - - - - - -
 
Date/Time
EDT
Temp
°C
Wind Pressure Rain since
9am
mm
Weather Cloud Vis
km
Sea
Height
m
Swell
Dir  Spd
kts
Gust
kts
hPa Trend Height
m
Period
s
Dir
15/11:30pm 14.8 WSW 9 13 1017.3 - 0.0 - - - - - - -
15/11:00pm 14.9 WSW 7 11 1017.5 - 0.0 - - - - - - -
15/10:30pm 15.3 W 9 12 1017.8 - 0.0 - - - - - - -
15/10:00pm 15.2 WSW 10 13 1017.7 - 0.0 - - - - - - -
15/09:30pm 15.2 W 9 12 1017.7 - 0.0 - - - - - - -
15/09:00pm 15.5 W 9 13 1017.7 - 0.0 - - - - - - -
15/08:30pm 15.7 W 8 11 1017.5 - 0.0 - - - - - - -
15/08:00pm 15.6 W 9 12 1017.5 - 0.0 - - - - - - -
15/07:30pm 15.6 W 9 13 1017.5 - 0.0 - - - - - - -
15/07:00pm 15.9 W 10 14 1017.6 - 0.0 - - - - - - -
15/06:30pm 16.1 WSW 9 13 1017.7 - 0.0 - - - - - - -
15/06:00pm 16.3 W 10 14 1018.0 - 0.0 - - - - - - -
15/05:30pm 16.3 W 10 14 1018.1 - 0.0 - - - - - - -
15/05:00pm 17.1 W 9 14 1018.4 - 0.0 - - - - - - -
15/04:30pm 17.5 W 10 13 1018.8 - 0.0 - - - - - - -
15/04:00pm 17.2 W 11 15 1019.0 - 0.0 - - - - - - -
15/03:30pm 16.9 W 11 16 1019.1 - 0.0 - - - - - - -
15/03:00pm 16.4 WSW 11 16 1019.1 - 0.0 - - - - - - -
15/02:30pm 16.6 WSW 11 16 1019.1 - 0.0 - - - - - - -
15/02:00pm 16.7 WSW 15 20 1019.1 - 0.0 - - - - - - -
15/01:30pm 16.8 WSW 13 18 1019.0 - 0.0 - - - - - - -
15/01:00pm 16.2 WSW 13 17 1019.2 - 0.0 - - - - - - -
15/12:30pm 15.9 WSW 12 16 1019.1 - 0.0 - - - - - - -
15/12:00pm 15.6 WSW 11 16 1019.1 - 0.0 - - - - - - -
15/11:30am 16.1 WSW 10 16 1019.1 - 0.0 - - - - - - -
15/11:00am 15.2 WSW 11 16 1019.1 - 0.0 - - - - - - -
15/10:30am 15.5 WSW 8 11 1019.0 - 0.0 - - - - - - -
15/10:00am 15.4 W 9 13 1019.0 - 0.0 - - - - - - -
15/09:30am 15.0 W 10 14 1018.8 - 0.0 - - - - - - -
15/09:00am 15.1 WSW 11 15 1018.9 - 0.0 - - - - - - -
15/08:30am 14.5 WSW 9 12 1018.6 - 0.0 - - - - - - -
15/08:00am 14.5 WSW 9 13 1018.2 - 0.0 - - - - - - -
15/07:30am 14.3 WSW 9 13 1017.9 - 0.0 - - - - - - -
15/07:00am 14.3 SW 10 13 1017.6 - 0.0 - - - - - - -
15/06:30am 14.5 WSW 11 16 1017.3 - 0.0 - - - - - - -
15/06:00am 14.4 WSW 13 17 1017.1 - 0.0 - - - - - - -
15/05:30am 14.3 WSW 10 17 1016.9 - 0.0 - - - - - - -
15/05:00am 14.2 SW 14 19 1016.5 - 0.0 - - - - - - -
15/04:30am 14.6 WSW 13 18 1016.2 - 0.0 - - - - - - -

Other Formats:

Comma delimited format used in spreadsheet applications
http://www.bom.gov.au/fwo/IDT60701/IDT60701.94842.axf

JavaScript Object Notation format (JSON) in row-major order
http://www.bom.gov.au/fwo/IDT60701/IDT60701.94842.json